| time (UTC) | temp F | wind direction | speed MPH | gust MPH | rain 1hr in | rain 24hr in | rain mn in | humidity % | barometer mb |
| 20260503203322 | 77 | 5 | 4.0 | 13.0 | 0.00 | 0.00 | 0.00 | 50 | 1013.6 |
| 20260503202342 | 77 | 13 | 7.0 | 13.0 | 0.00 | 0.00 | 0.00 | 50 | 1013.7 |
| 20260503201352 | 77 | 295 | 6.0 | 10.0 | 0.00 | 0.00 | 0.00 | 51 | 1013.7 |
| 20260503200346 | 76 | 315 | 6.0 | 9.0 | 0.00 | 0.00 | 0.00 | 54 | 1013.8 |
| 20260503195342 | 76 | 308 | 6.0 | 11.0 | 0.00 | 0.00 | 0.00 | 54 | 1014.1 |
| 20260503194359 | 75 | 338 | 3.0 | 11.0 | 0.00 | 0.00 | 0.00 | 54 | 1014.3 |
| 20260503193354 | 74 | 316 | 8.0 | 13.0 | 0.00 | 0.00 | 0.00 | 54 | 1014.4 |
| 20260503192323 | 74 | 344 | 8.0 | 13.0 | 0.00 | 0.00 | 0.00 | 52 | 1014.5 |
| 20260503191335 | 74 | 360 | 5.0 | 11.0 | 0.00 | 0.00 | 0.00 | 52 | 1014.5 |
| 20260503190324 | 74 | 300 | 6.0 | 11.0 | 0.00 | 0.00 | 0.00 | 52 | 1014.6 |
| 20260503185334 | 73 | 348 | 7.0 | 10.0 | 0.00 | 0.00 | 0.00 | 53 | 1014.6 |
| 20260503184342 | 72 | 322 | 6.0 | 11.0 | 0.00 | 0.00 | 0.00 | 55 | 1014.8 |
| 20260503183351 | 72 | 311 | 7.0 | 12.0 | 0.00 | 0.00 | 0.00 | 54 | 1014.9 |
| 20260503182341 | 73 | 299 | 7.0 | 12.0 | 0.00 | 0.00 | 0.00 | 55 | 1015.0 |
| 20260503181337 | 72 | 341 | 7.0 | 11.0 | 0.00 | 0.00 | 0.00 | 59 | 1015.1 |
| 20260503180341 | 72 | 319 | 6.0 | 11.0 | 0.00 | 0.00 | 0.00 | 61 | 1015.1 |
| 20260503175344 | 71 | 296 | 7.0 | 13.0 | 0.00 | 0.00 | 0.00 | 63 | 1015.2 |
| 20260503174334 | 71 | 327 | 6.0 | 10.0 | 0.00 | 0.00 | 0.00 | 66 | 1015.2 |
| 20260503173343 | 70 | 341 | 7.0 | 11.0 | 0.00 | 0.00 | 0.00 | 65 | 1015.2 |
| 20260503172317 | 70 | 330 | 5.0 | 9.0 | 0.00 | 0.00 | 0.00 | 66 | 1015.3 |
| 20260503171317 | 70 | 296 | 4.0 | 9.0 | 0.00 | 0.00 | 0.00 | 63 | 1015.4 |
| 20260503170336 | 69 | 323 | 4.0 | 8.0 | 0.00 | 0.00 | 0.00 | 65 | 1015.6 |
| 20260503150316 | 59 | 349 | 3.0 | 4.0 | 0.00 | 0.00 | 0.00 | 82 | 1016.1 |
| 20260503140315 | 48 | 355 | 0.0 | 0.0 | 0.00 | 0.00 | 0.00 | 96 | 1016.0 |
| 20260503131318 | 47 | 355 | 0.0 | 0.0 | 0.00 | 0.00 | 0.00 | 95 | 1015.8 |
| 20260503130326 | 47 | 355 | 0.0 | 0.0 | 0.00 | 0.00 | 0.00 | 95 | 1015.8 |
| 20260503110338 | 49 | 355 | 0.0 | 0.0 | 0.00 | 0.00 | 0.00 | 93 | 1016.0 |
| 20260503090317 | 51 | 355 | 0.0 | 0.0 | 0.00 | 0.00 | 0.00 | 89 | 1016.1 |
| 20260503081338 | 53 | 355 | 0.0 | 0.0 | 0.00 | 0.00 | 0.00 | 87 | 1016.1 |
| 20260503080347 | 53 | 355 | 0.0 | 0.0 | 0.00 | 0.00 | 0.00 | 86 | 1016.2 |
| 20260503072320 | 54 | 355 | 0.0 | 0.0 | 0.00 | 0.00 | 0.00 | 84 | 1016.1 |
| 20260503071315 | 55 | 355 | 0.0 | 0.0 | 0.00 | 0.00 | 0.00 | 82 | 1016.0 |
| 20260503070329 | 55 | 355 | 0.0 | 0.0 | 0.00 | 0.00 | 0.00 | 81 | 1015.9 |
| 20260503060315 | 59 | 17 | 0.0 | 0.0 | 0.00 | 0.00 | 0.00 | 72 | 1015.8 |
| 20260503054337 | 61 | 17 | 0.0 | 2.0 | 0.00 | 0.00 | 0.00 | 68 | 1015.8 |
| 20260503053323 | 62 | 322 | 0.0 | 0.0 | 0.00 | 0.00 | 0.00 | 65 | 1015.7 |
| 20260503052332 | 63 | 322 | 0.0 | 3.0 | 0.00 | 0.00 | 0.00 | 63 | 1015.7 |
| 20260503051320 | 64 | 346 | 3.0 | 5.0 | 0.00 | 0.00 | 0.00 | 62 | 1015.5 |
| 20260503050329 | 64 | 319 | 3.0 | 6.0 | 0.00 | 0.00 | 0.00 | 61 | 1015.5 |
| 20260503045339 | 64 | 5 | 3.0 | 6.0 | 0.00 | 0.00 | 0.00 | 60 | 1015.4 |
| 20260503044326 | 65 | 355 | 3.0 | 8.0 | 0.00 | 0.00 | 0.00 | 60 | 1015.3 |
| 20260503043318 | 65 | 317 | 4.0 | 9.0 | 0.00 | 0.00 | 0.00 | 60 | 1015.3 |
| 20260503042351 | 65 | 5 | 6.0 | 11.0 | 0.00 | 0.00 | 0.00 | 59 | 1015.1 |
| 20260503041316 | 66 | 327 | 4.0 | 9.0 | 0.00 | 0.00 | 0.00 | 59 | 1015.0 |
| 20260503040325 | 66 | 336 | 7.0 | 10.0 | 0.00 | 0.00 | 0.00 | 59 | 1014.9 |
| 20260503035334 | 67 | 319 | 8.0 | 12.0 | 0.00 | 0.00 | 0.00 | 58 | 1014.7 |
| 20260503034347 | 67 | 328 | 7.0 | 12.0 | 0.00 | 0.00 | 0.00 | 58 | 1014.5 |
| 20260503033359 | 67 | 331 | 6.0 | 12.0 | 0.00 | 0.00 | 0.00 | 57 | 1014.4 |
| 20260503032323 | 68 | 323 | 6.0 | 10.0 | 0.00 | 0.00 | 0.00 | 56 | 1014.2 |
| 20260503031316 | 68 | 348 | 8.0 | 12.0 | 0.00 | 0.00 | 0.00 | 55 | 1014.3 |
| 20260503030322 | 69 | 341 | 6.0 | 11.0 | 0.00 | 0.00 | 0.00 | 54 | 1014.2 |
| 20260503025334 | 69 | 302 | 7.0 | 11.0 | 0.00 | 0.00 | 0.00 | 53 | 1014.1 |
| 20260503024326 | 70 | 315 | 6.0 | 14.0 | 0.00 | 0.00 | 0.00 | 53 | 1014.1 |
| 20260503023315 | 70 | 314 | 8.0 | 13.0 | 0.00 | 0.00 | 0.00 | 52 | 1014.1 |
| 20260503022330 | 70 | 338 | 9.0 | 13.0 | 0.00 | 0.00 | 0.00 | 51 | 1014.0 |
| 20260503021344 | 71 | 311 | 8.0 | 13.0 | 0.00 | 0.00 | 0.00 | 50 | 1014.0 |
| 20260503020325 | 71 | 319 | 7.0 | 15.0 | 0.00 | 0.00 | 0.00 | 50 | 1014.1 |
| 20260503015335 | 71 | 320 | 9.0 | 17.0 | 0.00 | 0.00 | 0.00 | 50 | 1014.1 |
| 20260503014325 | 71 | 317 | 10.0 | 15.0 | 0.00 | 0.00 | 0.00 | 49 | 1014.2 |
| 20260503013326 | 72 | 346 | 12.0 | 17.0 | 0.00 | 0.00 | 0.00 | 47 | 1014.4 |
| 20260503012334 | 72 | 306 | 11.0 | 15.0 | 0.00 | 0.00 | 0.00 | 46 | 1014.5 |
| 20260503011322 | 72 | 296 | 12.0 | 18.0 | 0.00 | 0.00 | 0.00 | 46 | 1014.5 |
| 20260503010332 | 73 | 346 | 13.0 | 19.0 | 0.00 | 0.00 | 0.00 | 46 | 1014.6 |
| 20260503005341 | 73 | 326 | 14.0 | 19.0 | 0.00 | 0.00 | 0.00 | 45 | 1014.6 |
| 20260503004319 | 73 | 327 | 13.0 | 20.0 | 0.00 | 0.00 | 0.00 | 47 | 1014.7 |
| 20260503003322 | 73 | 308 | 9.0 | 15.0 | 0.00 | 0.00 | 0.00 | 54 | 1014.6 |
| 20260503002324 | 74 | 284 | 9.0 | 14.0 | 0.00 | 0.00 | 0.00 | 55 | 1014.7 |
| 20260503001328 | 74 | 327 | 8.0 | 14.0 | 0.00 | 0.00 | 0.00 | 55 | 1014.8 |
| 20260503000325 | 74 | 294 | 7.0 | 15.0 | 0.00 | 0.00 | 0.00 | 56 | 1014.9 |
| 20260502235339 | 73 | 288 | 8.0 | 16.0 | 0.00 | 0.00 | 0.00 | 57 | 1014.9 |
| 20260502234328 | 74 | 313 | 8.0 | 16.0 | 0.00 | 0.00 | 0.00 | 56 | 1014.9 |
| 20260502233316 | 74 | 330 | 9.0 | 14.0 | 0.00 | 0.00 | 0.00 | 56 | 1015.0 |
| 20260502232331 | 73 | 305 | 8.0 | 14.0 | 0.00 | 0.00 | 0.00 | 58 | 1015.2 |
| 20260502231334 | 74 | 317 | 8.0 | 13.0 | 0.00 | 0.00 | 0.00 | 58 | 1015.3 |
| 20260502230345 | 74 | 338 | 9.0 | 13.0 | 0.00 | 0.00 | 0.00 | 59 | 1015.4 |
| 20260502225339 | 73 | 303 | 8.0 | 12.0 | 0.00 | 0.00 | 0.00 | 61 | 1015.4 |
| 20260502224323 | 73 | 341 | 9.0 | 15.0 | 0.00 | 0.00 | 0.00 | 61 | 1015.6 |
| 20260502223326 | 73 | 306 | 7.0 | 14.0 | 0.00 | 0.00 | 0.00 | 62 | 1015.7 |
| 20260502222333 | 73 | 336 | 8.0 | 14.0 | 0.00 | 0.00 | 0.00 | 62 | 1015.9 |
| 20260502221333 | 73 | 299 | 11.0 | 17.0 | 0.00 | 0.00 | 0.00 | 62 | 1016.0 |
| 20260502220320 | 72 | 332 | 11.0 | 18.0 | 0.00 | 0.00 | 0.00 | 63 | 1016.0 |
| 20260502215328 | 73 | 309 | 10.0 | 16.0 | 0.00 | 0.00 | 0.00 | 64 | 1016.1 |
| 20260502214337 | 72 | 346 | 11.0 | 18.0 | 0.00 | 0.00 | 0.00 | 63 | 1016.2 |
| 20260502213319 | 73 | 311 | 9.0 | 14.0 | 0.00 | 0.00 | 0.00 | 63 | 1016.3 |
| 20260502212324 | 72 | 318 | 10.0 | 16.0 | 0.00 | 0.00 | 0.00 | 62 | 1016.3 |
| 20260502211327 | 73 | 339 | 7.0 | 15.0 | 0.00 | 0.00 | 0.00 | 63 | 1016.4 |
| 20260502210349 | 72 | 328 | 9.0 | 14.0 | 0.00 | 0.00 | 0.00 | 64 | 1016.5 |
| 20260502205333 | 72 | 295 | 3.0 | 14.0 | 0.00 | 0.00 | 0.00 | 64 | 1016.7 |
| 20260502204315 | 71 | 313 | 4.0 | 12.0 | 0.00 | 0.00 | 0.00 | 65 | 1016.8 |